| time (UTC) | temp C | wind direction | speed KPH | gust KPH | rain 1hr cm | rain 24hr cm | rain mn cm | humidity % | barometer mb |
| 20260505004517 | 25 | 63 | 0.0 | 0.0 | 0.00 | 0.00 | 0.00 | 38 | 1008.0 |
| 20260505004011 | 25 | 355 | 0.0 | 0.0 | 0.00 | 0.00 | 0.00 | 37 | 1008.0 |
| 20260505003506 | 25 | 289 | 0.0 | 3.2 | 0.00 | 0.00 | 0.00 | 39 | 1007.9 |
| 20260505003000 | 25 | 294 | 0.0 | 3.2 | 0.00 | 0.00 | 0.00 | 37 | 1007.9 |
| 20260505002452 | 25 | 23 | 0.0 | 1.6 | 0.00 | 0.00 | 0.00 | 38 | 1007.9 |
| 20260505001947 | 25 | 253 | 0.0 | 14.5 | 0.00 | 0.00 | 0.00 | 38 | 1007.9 |
| 20260505001711 | 25 | 165 | 0.0 | 14.5 | 0.00 | 0.00 | 0.00 | 35 | 1007.9 |
| 20260505000935 | 25 | 284 | 0.0 | 1.6 | 0.00 | 0.00 | 0.00 | 34 | 1007.9 |
| 20260505000429 | 26 | 277 | 0.0 | 0.0 | 0.00 | 0.00 | 0.00 | 36 | 1007.9 |
| 20260505000406 | 26 | 36 | 0.0 | 0.0 | 0.00 | 0.00 | 0.00 | 36 | 1007.9 |
| 20260504235420 | 26 | 248 | 0.0 | 0.0 | 0.00 | 0.00 | 0.00 | 35 | 1008.0 |
| 20260504234908 | 26 | 5 | 0.0 | 0.0 | 0.00 | 0.00 | 0.00 | 36 | 1007.9 |
| 20260504234405 | 26 | 236 | 0.0 | 0.0 | 0.00 | 0.00 | 0.00 | 34 | 1007.9 |
| 20260504233855 | 26 | 301 | 0.0 | 0.0 | 0.00 | 0.00 | 0.00 | 35 | 1007.9 |
| 20260504233355 | 27 | 126 | 0.0 | 0.0 | 0.00 | 0.00 | 0.00 | 35 | 1008.0 |
| 20260504232847 | 27 | 227 | 0.0 | 0.0 | 0.00 | 0.00 | 0.00 | 34 | 1007.9 |
| 20260504232341 | 27 | 65 | 0.0 | 0.0 | 0.00 | 0.00 | 0.00 | 34 | 1007.9 |
| 20260504232058 | 27 | 5 | 0.0 | 0.0 | 0.00 | 0.00 | 0.00 | 35 | 1008.0 |
| 20260504231331 | 27 | 190 | 0.0 | 0.0 | 0.00 | 0.00 | 0.00 | 33 | 1008.0 |
| 20260504230823 | 27 | 109 | 0.0 | 1.6 | 0.00 | 0.00 | 0.00 | 34 | 1008.0 |
| 20260504230317 | 27 | 256 | 0.0 | 1.6 | 0.00 | 0.00 | 0.00 | 33 | 1008.0 |
| 20260504225811 | 27 | 332 | 0.0 | 0.0 | 0.00 | 0.00 | 0.00 | 35 | 1008.0 |
| 20260504225308 | 27 | 159 | 0.0 | 0.0 | 0.00 | 0.00 | 0.00 | 33 | 1008.1 |
| 20260504224759 | 28 | 70 | 0.0 | 8.0 | 0.00 | 0.00 | 0.00 | 32 | 1008.2 |
| 20260504224517 | 28 | 256 | 0.0 | 8.0 | 0.00 | 0.00 | 0.00 | 33 | 1008.3 |
| 20260504223747 | 27 | 223 | 0.0 | 11.3 | 0.00 | 0.00 | 0.00 | 35 | 1008.4 |
| 20260504223243 | 27 | 132 | 0.0 | 11.3 | 0.00 | 0.00 | 0.00 | 33 | 1008.4 |
| 20260504222737 | 27 | 202 | 0.0 | 0.0 | 0.00 | 0.00 | 0.00 | 41 | 1008.4 |
| 20260504222453 | 28 | 35 | 0.0 | 0.0 | 0.00 | 0.00 | 0.00 | 41 | 1008.5 |
| 20260504221728 | 28 | 175 | 0.0 | 0.0 | 0.00 | 0.00 | 0.00 | 34 | 1008.5 |
| 20260504221505 | 28 | 331 | 0.0 | 0.0 | 0.00 | 0.00 | 0.00 | 35 | 1008.5 |
| 20260504220947 | 27 | 107 | 0.0 | 0.0 | 0.00 | 0.00 | 0.00 | 37 | 1008.4 |
| 20260504220225 | 27 | 149 | 0.0 | 0.0 | 0.00 | 0.00 | 0.00 | 39 | 1008.5 |
| 20260504215729 | 27 | 104 | 0.0 | 0.0 | 0.00 | 0.00 | 0.00 | 33 | 1008.5 |
| 20260504215226 | 27 | 194 | 0.0 | 0.0 | 0.00 | 0.00 | 0.00 | 35 | 1008.6 |
| 20260504214726 | 27 | 71 | 0.0 | 0.0 | 0.00 | 0.00 | 0.00 | 32 | 1008.6 |
| 20260504214504 | 27 | 355 | 0.0 | 0.0 | 0.00 | 0.00 | 0.00 | 34 | 1008.5 |
| 20260504213727 | 27 | 83 | 0.0 | 0.0 | 0.00 | 0.00 | 0.00 | 37 | 1008.6 |
| 20260504213228 | 27 | 97 | 0.0 | 4.8 | 0.00 | 0.00 | 0.00 | 38 | 1008.5 |
| 20260504212731 | 27 | 172 | 0.0 | 16.1 | 0.00 | 0.00 | 0.00 | 33 | 1008.6 |
| 20260504212227 | 27 | 302 | 0.0 | 16.1 | 0.00 | 0.00 | 0.00 | 37 | 1008.7 |
| 20260504211725 | 27 | 166 | 0.0 | 0.0 | 0.00 | 0.00 | 0.00 | 36 | 1008.6 |
| 20260504211225 | 27 | 192 | 0.0 | 0.0 | 0.00 | 0.00 | 0.00 | 35 | 1008.6 |
| 20260504210728 | 26 | 238 | 0.0 | 0.0 | 0.00 | 0.00 | 0.00 | 36 | 1008.7 |
| 20260504210226 | 26 | 67 | 0.0 | 17.7 | 0.00 | 0.00 | 0.00 | 37 | 1008.6 |
| 20260504205956 | 26 | 82 | 0.0 | 17.7 | 0.00 | 0.00 | 0.00 | 34 | 1008.7 |
| 20260504205226 | 26 | 294 | 0.0 | 1.6 | 0.00 | 0.00 | 0.00 | 33 | 1008.7 |
| 20260504204726 | 26 | 343 | 0.0 | 1.6 | 0.00 | 0.00 | 0.00 | 31 | 1008.9 |
| 20260504204228 | 26 | 348 | 0.0 | 8.0 | 0.00 | 0.00 | 0.00 | 32 | 1008.8 |
| 20260504203728 | 26 | 95 | 0.0 | 8.0 | 0.00 | 0.00 | 0.00 | 33 | 1008.7 |
| 20260504203227 | 26 | 51 | 0.0 | 4.8 | 0.00 | 0.00 | 0.00 | 37 | 1008.8 |
| 20260504202951 | 26 | 0 | 0.0 | 1.6 | 0.00 | 0.00 | 0.00 | 35 | 1008.7 |
| 20260504202225 | 26 | 18 | 0.0 | 4.8 | 0.00 | 0.00 | 0.00 | 39 | 1008.8 |
| 20260504201723 | 26 | 157 | 0.0 | 11.3 | 0.00 | 0.00 | 0.00 | 39 | 1008.7 |
| 20260504201225 | 26 | 186 | 0.0 | 11.3 | 0.00 | 0.00 | 0.00 | 36 | 1008.7 |
| 20260504200724 | 25 | 158 | 0.0 | 11.3 | 0.00 | 0.00 | 0.00 | 38 | 1008.8 |
| 20260504200225 | 25 | 141 | 0.0 | 11.3 | 0.00 | 0.00 | 0.00 | 40 | 1008.9 |
| 20260504195724 | 25 | 131 | 0.0 | 0.0 | 0.00 | 0.00 | 0.00 | 44 | 1008.9 |
| 20260504195444 | 25 | 51 | 0.0 | 0.0 | 0.00 | 0.00 | 0.00 | 38 | 1008.9 |
| 20260504194721 | 25 | 42 | 0.0 | 0.0 | 0.00 | 0.00 | 0.00 | 38 | 1009.0 |
| 20260504194220 | 25 | 16 | 0.0 | 0.0 | 0.00 | 0.00 | 0.00 | 38 | 1009.2 |
| 20260504193721 | 25 | 126 | 0.0 | 6.4 | 0.00 | 0.00 | 0.00 | 42 | 1009.0 |
| 20260504193221 | 25 | 86 | 0.0 | 6.4 | 0.00 | 0.00 | 0.00 | 38 | 1009.1 |
| 20260504192721 | 25 | 133 | 0.0 | 1.6 | 0.00 | 0.00 | 0.00 | 39 | 1009.1 |
| 20260504192214 | 25 | 192 | 0.0 | 1.6 | 0.00 | 0.00 | 0.00 | 43 | 1009.2 |
| 20260504191709 | 25 | 334 | 0.0 | 1.6 | 0.00 | 0.00 | 0.00 | 41 | 1009.2 |
| 20260504191703 | 25 | 191 | 0.0 | 0.0 | 0.00 | 0.00 | 0.00 | 41 | 1009.3 |
| 20260504190656 | 25 | 142 | 0.0 | 0.0 | 0.00 | 0.00 | 0.00 | 39 | 1009.3 |
| 20260504190150 | 24 | 114 | 0.0 | 1.6 | 0.00 | 0.00 | 0.00 | 39 | 1009.3 |
| 20260504185645 | 24 | 133 | 0.0 | 1.6 | 0.00 | 0.00 | 0.00 | 38 | 1009.4 |
| 20260504185138 | 24 | 44 | 0.0 | 0.0 | 0.00 | 0.00 | 0.00 | 40 | 1009.3 |
| 20260504184631 | 24 | 221 | 0.0 | 3.2 | 0.00 | 0.00 | 0.00 | 46 | 1009.4 |
| 20260504184126 | 24 | 111 | 0.0 | 9.7 | 0.00 | 0.00 | 0.00 | 44 | 1009.4 |
| 20260504183620 | 24 | 178 | 0.0 | 9.7 | 0.00 | 0.00 | 0.00 | 44 | 1009.5 |
| 20260504183114 | 24 | 190 | 0.0 | 0.0 | 0.00 | 0.00 | 0.00 | 46 | 1009.7 |
| 20260504182609 | 23 | 240 | 0.0 | 0.0 | 0.00 | 0.00 | 0.00 | 45 | 1009.7 |
| 20260504182101 | 23 | 159 | 0.0 | 0.0 | 0.00 | 0.00 | 0.00 | 49 | 1009.8 |
| 20260504181556 | 23 | 155 | 0.0 | 0.0 | 0.00 | 0.00 | 0.00 | 45 | 1009.8 |
| 20260504181050 | 23 | 82 | 0.0 | 4.8 | 0.00 | 0.00 | 0.00 | 47 | 1009.8 |
| 20260504180817 | 23 | 135 | 0.0 | 4.8 | 0.00 | 0.00 | 0.00 | 47 | 1009.7 |
| 20260504180039 | 23 | 312 | 0.0 | 3.2 | 0.00 | 0.00 | 0.00 | 47 | 1009.7 |
| 20260504175532 | 23 | 166 | 0.0 | 0.0 | 0.00 | 0.00 | 0.00 | 46 | 1009.7 |
| 20260504175026 | 23 | 343 | 0.0 | 3.2 | 0.00 | 0.00 | 0.00 | 45 | 1009.7 |
| 20260504174522 | 23 | 215 | 0.0 | 8.0 | 0.00 | 0.00 | 0.00 | 50 | 1009.7 |
| 20260504174014 | 22 | 154 | 0.0 | 8.0 | 0.00 | 0.00 | 0.00 | 46 | 1009.7 |
| 20260504173507 | 22 | 296 | 0.0 | 3.2 | 0.00 | 0.00 | 0.00 | 51 | 1009.7 |
| 20260504173002 | 22 | 281 | 0.0 | 3.2 | 0.00 | 0.00 | 0.00 | 49 | 1009.7 |
| 20260504172457 | 21 | 241 | 0.0 | 1.6 | 0.00 | 0.00 | 0.00 | 52 | 1009.5 |
| 20260504171950 | 21 | 133 | 0.0 | 1.6 | 0.00 | 0.00 | 0.00 | 50 | 1009.7 |
| 20260504171444 | 21 | 159 | 0.0 | 0.0 | 0.00 | 0.00 | 0.00 | 53 | 1009.7 |
| 20260504171155 | 20 | 153 | 0.0 | 1.6 | 0.00 | 0.00 | 0.00 | 57 | 1009.7 |
| 20260504170433 | 19 | 124 | 0.0 | 1.6 | 0.00 | 0.00 | 0.00 | 65 | 1009.7 |
| 20260504150809 | 10 | 111 | 0.0 | 0.0 | 0.00 | 0.00 | 0.00 | 89 | 1009.4 |
| 20260504150527 | 10 | 111 | 0.0 | 0.0 | 0.00 | 0.00 | 0.00 | 90 | 1009.4 |
| 20260504141300 | 9 | 82 | 0.0 | 0.0 | 0.00 | 0.00 | 0.00 | 91 | 1009.2 |
| 20260504141031 | 9 | 82 | 0.0 | 0.0 | 0.00 | 0.00 | 0.00 | 91 | 1009.3 |
| 20260504140302 | 9 | 77 | 0.0 | 0.0 | 0.00 | 0.00 | 0.00 | 90 | 1009.3 |
| 20260504130756 | 9 | 191 | 0.0 | 0.0 | 0.00 | 0.00 | 0.00 | 88 | 1009.0 |
| 20260504130255 | 9 | 191 | 0.0 | 0.0 | 0.00 | 0.00 | 0.00 | 87 | 1009.0 |
| 20260504120207 | 10 | 191 | 0.0 | 0.0 | 0.00 | 0.00 | 0.00 | 86 | 1008.9 |
| 20260504110601 | 10 | 191 | 0.0 | 0.0 | 0.00 | 0.00 | 0.00 | 85 | 1008.9 |
| 20260504100510 | 11 | 210 | 0.0 | 0.0 | 0.00 | 0.00 | 0.00 | 83 | 1008.9 |
| 20260504081929 | 12 | 186 | 0.0 | 0.0 | 0.00 | 0.00 | 0.00 | 82 | 1009.0 |
| 20260504081423 | 12 | 186 | 0.0 | 0.0 | 0.00 | 0.00 | 0.00 | 82 | 1009.0 |
| 20260504081146 | 12 | 186 | 0.0 | 0.0 | 0.00 | 0.00 | 0.00 | 83 | 1009.0 |
| 20260504080413 | 12 | 186 | 0.0 | 0.0 | 0.00 | 0.00 | 0.00 | 82 | 1009.0 |
| 20260504070255 | 12 | 186 | 0.0 | 0.0 | 0.00 | 0.00 | 0.00 | 81 | 1009.1 |
| 20260504060145 | 14 | 168 | 0.0 | 0.0 | 0.00 | 0.00 | 0.00 | 80 | 1009.0 |
| 20260504050541 | 16 | 168 | 0.0 | 0.0 | 0.00 | 0.00 | 0.00 | 75 | 1009.0 |
| 20260504045528 | 16 | 168 | 0.0 | 0.0 | 0.00 | 0.00 | 0.00 | 74 | 1009.0 |
| 20260504045245 | 16 | 168 | 0.0 | 0.0 | 0.00 | 0.00 | 0.00 | 73 | 1008.9 |
| 20260504044517 | 16 | 168 | 0.0 | 0.0 | 0.00 | 0.00 | 0.00 | 74 | 1008.9 |
| 20260504044226 | 17 | 168 | 0.0 | 0.0 | 0.00 | 0.00 | 0.00 | 72 | 1008.8 |
| 20260504043504 | 17 | 168 | 0.0 | 0.0 | 0.00 | 0.00 | 0.00 | 71 | 1008.8 |
| 20260504043221 | 17 | 168 | 0.0 | 0.0 | 0.00 | 0.00 | 0.00 | 70 | 1008.7 |
| 20260504042709 | 17 | 168 | 0.0 | 0.0 | 0.00 | 0.00 | 0.00 | 69 | 1008.7 |
| 20260504041943 | 18 | 168 | 0.0 | 0.0 | 0.00 | 0.00 | 0.00 | 68 | 1008.7 |
| 20260504041443 | 18 | 168 | 0.0 | 0.0 | 0.00 | 0.00 | 0.00 | 67 | 1008.5 |
| 20260504040939 | 18 | 168 | 0.0 | 0.0 | 0.00 | 0.00 | 0.00 | 65 | 1008.5 |
| 20260504040435 | 18 | 167 | 0.0 | 0.0 | 0.00 | 0.00 | 0.00 | 66 | 1008.4 |
| 20260504035936 | 18 | 167 | 0.0 | 0.0 | 0.00 | 0.00 | 0.00 | 65 | 1008.4 |
| 20260504035433 | 19 | 167 | 0.0 | 0.0 | 0.00 | 0.00 | 0.00 | 63 | 1008.3 |
| 20260504034933 | 19 | 167 | 0.0 | 0.0 | 0.00 | 0.00 | 0.00 | 63 | 1008.3 |
| 20260504034430 | 20 | 167 | 0.0 | 0.0 | 0.00 | 0.00 | 0.00 | 64 | 1008.4 |
| 20260504033928 | 20 | 194 | 0.0 | 0.0 | 0.00 | 0.00 | 0.00 | 61 | 1008.3 |
| 20260504033429 | 20 | 194 | 0.0 | 0.0 | 0.00 | 0.00 | 0.00 | 61 | 1008.2 |
| 20260504032929 | 20 | 194 | 0.0 | 0.0 | 0.00 | 0.00 | 0.00 | 58 | 1008.1 |
| 20260504032427 | 21 | 194 | 0.0 | 0.0 | 0.00 | 0.00 | 0.00 | 60 | 1008.1 |
| 20260504032147 | 21 | 197 | 0.0 | 0.0 | 0.00 | 0.00 | 0.00 | 59 | 1008.1 |
| 20260504031423 | 21 | 197 | 0.0 | 0.0 | 0.00 | 0.00 | 0.00 | 58 | 1008.0 |
| 20260504030931 | 22 | 200 | 0.0 | 0.0 | 0.00 | 0.00 | 0.00 | 58 | 1008.0 |
| 20260504030424 | 22 | 148 | 0.0 | 0.0 | 0.00 | 0.00 | 0.00 | 56 | 1007.9 |
| 20260504025919 | 23 | 148 | 0.0 | 0.0 | 0.00 | 0.00 | 0.00 | 56 | 1007.9 |
| 20260504025420 | 23 | 132 | 0.0 | 0.0 | 0.00 | 0.00 | 0.00 | 55 | 1007.9 |
| 20260504024920 | 23 | 205 | 0.0 | 3.2 | 0.00 | 0.00 | 0.00 | 51 | 1007.8 |
| 20260504024419 | 23 | 205 | 0.0 | 3.2 | 0.00 | 0.00 | 0.00 | 44 | 1007.8 |
| 20260504023918 | 23 | 187 | 0.0 | 0.0 | 0.00 | 0.00 | 0.00 | 46 | 1007.8 |
| 20260504023412 | 23 | 156 | 0.0 | 0.0 | 0.00 | 0.00 | 0.00 | 47 | 1007.8 |
| 20260504022907 | 24 | 158 | 0.0 | 0.0 | 0.00 | 0.00 | 0.00 | 47 | 1007.7 |
| 20260504022404 | 24 | 150 | 0.0 | 0.0 | 0.00 | 0.00 | 0.00 | 47 | 1007.7 |
| 20260504021903 | 25 | 132 | 0.0 | 0.0 | 0.00 | 0.00 | 0.00 | 47 | 1007.8 |
| 20260504021403 | 25 | 139 | 0.0 | 0.0 | 0.00 | 0.00 | 0.00 | 45 | 1007.8 |
| 20260504020905 | 25 | 138 | 0.0 | 8.0 | 0.00 | 0.00 | 0.00 | 44 | 1007.8 |
| 20260504020402 | 25 | 165 | 0.0 | 8.0 | 0.00 | 0.00 | 0.00 | 44 | 1007.8 |
| 20260504015858 | 25 | 155 | 0.0 | 8.0 | 0.00 | 0.00 | 0.00 | 45 | 1007.7 |
| 20260504015359 | 25 | 150 | 0.0 | 0.0 | 0.00 | 0.00 | 0.00 | 41 | 1007.7 |
| 20260504014858 | 26 | 188 | 0.0 | 0.0 | 0.00 | 0.00 | 0.00 | 43 | 1007.8 |
| 20260504014400 | 26 | 213 | 0.0 | 0.0 | 0.00 | 0.00 | 0.00 | 41 | 1007.8 |
| 20260504013859 | 26 | 223 | 0.0 | 0.0 | 0.00 | 0.00 | 0.00 | 39 | 1007.8 |
| 20260504013627 | 26 | 193 | 0.0 | 0.0 | 0.00 | 0.00 | 0.00 | 40 | 1007.8 |
| 20260504012859 | 26 | 113 | 0.0 | 0.0 | 0.00 | 0.00 | 0.00 | 39 | 1007.8 |
| 20260504012359 | 26 | 153 | 0.0 | 0.0 | 0.00 | 0.00 | 0.00 | 37 | 1007.9 |
| 20260504012121 | 26 | 327 | 0.0 | 0.0 | 0.00 | 0.00 | 0.00 | 37 | 1007.9 |
| 20260504011358 | 26 | 292 | 0.0 | 0.0 | 0.00 | 0.00 | 0.00 | 38 | 1008.0 |
| 20260504010859 | 26 | 132 | 0.0 | 0.0 | 0.00 | 0.00 | 0.00 | 37 | 1008.0 |
| 20260504010850 | 26 | 271 | 0.0 | 0.0 | 0.00 | 0.00 | 0.00 | 37 | 1008.1 |
| 20260504005908 | 26 | 86 | 0.0 | 1.6 | 0.00 | 0.00 | 0.00 | 39 | 1008.0 |
| 20260504005358 | 26 | 295 | 0.0 | 6.4 | 0.00 | 0.00 | 0.00 | 39 | 1008.1 |
| 20260504005122 | 27 | 164 | 0.0 | 6.4 | 0.00 | 0.00 | 0.00 | 37 | 1008.2 |
| 20260504004624 | 27 | 284 | 0.0 | 0.0 | 0.00 | 0.00 | 0.00 | 39 | 1008.2 |